Time,TemperatureF,DewpointF,PressureIn,WindDirection,WindDirectionDegrees,WindSpeedMPH,WindSpeedGustMPH,Humidity,HourlyPrecipIn,Conditions,Clouds,dailyrainin,SoftwareType,DateUTC
2013-02-27 00:00:00,32.7,27.3,30.20,ESE,111,0.0,5.0,80,0.00,,,0.04,meteohub,2013-02-27 05:00:00,
2013-02-27 00:05:00,32.7,27.3,30.20,SSE,156,4.0,8.0,80,0.00,,,0.00,meteohub,2013-02-27 05:05:00,
2013-02-27 00:10:00,32.7,27.3,30.20,SE,126,0.0,8.0,80,0.00,,,0.00,meteohub,2013-02-27 05:10:00,
2013-02-27 00:15:00,32.7,27.3,30.20,South,188,3.0,8.0,80,0.00,,,0.00,meteohub,2013-02-27 05:15:00,
2013-02-27 00:20:00,32.7,27.3,30.19,ESE,116,5.0,8.0,80,0.00,,,0.00,meteohub,2013-02-27 05:20:00,
2013-02-27 00:25:00,32.5,26.8,30.19,South,169,0.0,14.0,79,0.00,,,0.00,meteohub,2013-02-27 05:25:00,
2013-02-27 00:30:00,32.5,27.1,30.19,South,175,0.0,14.0,80,0.00,,,0.00,meteohub,2013-02-27 05:30:00,
2013-02-27 00:35:00,32.5,27.1,30.19,SE,142,7.0,8.0,80,0.00,,,0.00,meteohub,2013-02-27 05:35:00,
2013-02-27 00:40:00,32.5,27.1,30.19,East,90,0.0,9.0,80,0.00,,,0.00,meteohub,2013-02-27 05:40:00,
2013-02-27 00:45:00,32.5,27.1,30.19,SSE,149,5.0,11.0,80,0.00,,,0.00,meteohub,2013-02-27 05:45:00,
2013-02-27 00:50:00,32.4,27.0,30.19,ESE,113,6.0,11.0,80,0.00,,,0.00,meteohub,2013-02-27 05:50:00,
2013-02-27 00:55:00,32.5,27.1,30.19,South,180,4.0,11.0,80,0.00,,,0.00,meteohub,2013-02-27 05:55:00,
2013-02-27 01:00:00,32.5,27.1,30.19,SE,144,0.0,11.0,80,0.00,,,0.00,meteohub,2013-02-27 06:00:00,
2013-02-27 01:05:00,32.5,27.1,30.19,ESE,104,5.0,11.0,80,0.00,,,0.00,meteohub,2013-02-27 06:05:00,
2013-02-27 01:10:00,32.5,27.1,30.19,ESE,104,0.0,13.0,80,0.00,,,0.00,meteohub,2013-02-27 06:10:00,
2013-02-27 01:15:00,32.5,27.1,30.18,SW,219,0.0,13.0,80,0.00,,,0.00,meteohub,2013-02-27 06:15:00,
2013-02-27 01:20:00,32.5,27.1,30.18,SSE,163,1.0,13.0,80,0.00,,,0.00,meteohub,2013-02-27 06:20:00,
2013-02-27 01:25:00,32.5,27.1,30.18,WNW,283,0.0,11.0,80,0.00,,,0.00,meteohub,2013-02-27 06:25:00,
2013-02-27 01:30:00,32.5,27.1,30.17,SE,146,2.0,11.0,80,0.00,,,0.00,meteohub,2013-02-27 06:30:00,
2013-02-27 01:35:00,32.4,27.0,30.18,SSE,164,7.0,9.0,80,0.00,,,0.00,meteohub,2013-02-27 06:35:00,
2013-02-27 01:40:00,32.4,27.1,30.17,SE,132,2.0,9.0,81,0.00,,,0.00,meteohub,2013-02-27 06:40:00,
2013-02-27 01:45:00,32.4,27.1,30.17,SSE,167,1.0,9.0,81,0.00,,,0.00,meteohub,2013-02-27 06:45:00,
2013-02-27 01:50:00,32.4,27.1,30.18,ESE,107,4.0,9.0,81,0.00,,,0.00,meteohub,2013-02-27 06:50:00,
2013-02-27 01:55:00,32.4,27.1,30.17,East,82,0.0,9.0,81,0.00,,,0.00,meteohub,2013-02-27 06:55:00,
2013-02-27 02:00:00,32.4,27.1,30.17,SE,138,0.0,9.0,81,0.00,,,0.00,meteohub,2013-02-27 07:00:00,
2013-02-27 02:05:00,32.4,27.1,30.17,SE,132,5.0,10.0,81,0.00,,,0.00,meteohub,2013-02-27 07:05:00,
2013-02-27 02:10:00,32.4,27.1,30.17,SE,141,2.0,10.0,81,0.00,,,0.00,meteohub,2013-02-27 07:10:00,
2013-02-27 02:15:00,32.4,27.1,30.17,South,189,0.0,10.0,81,0.00,,,0.00,meteohub,2013-02-27 07:15:00,
2013-02-27 02:20:00,32.2,27.0,30.17,SSE,167,0.0,7.0,81,0.00,,,0.00,meteohub,2013-02-27 07:20:00,
2013-02-27 02:25:00,32.2,27.0,30.17,SE,146,1.0,5.0,81,0.00,,,0.00,meteohub,2013-02-27 07:25:00,
2013-02-27 02:30:00,32.4,27.1,30.17,North,355,0.0,5.0,81,0.00,,,0.00,meteohub,2013-02-27 07:30:00,
2013-02-27 02:35:00,32.4,27.1,30.16,SE,143,0.0,8.0,81,0.00,,,0.00,meteohub,2013-02-27 07:35:00,
2013-02-27 02:40:00,32.4,27.1,30.16,SSE,165,0.0,8.0,81,0.00,,,0.00,meteohub,2013-02-27 07:40:00,
2013-02-27 02:45:00,32.2,27.0,30.16,SSE,147,1.0,8.0,81,0.00,,,0.00,meteohub,2013-02-27 07:45:00,
2013-02-27 02:50:00,32.4,27.0,30.15,SSE,151,0.0,8.0,80,0.00,,,0.00,meteohub,2013-02-27 07:50:00,
2013-02-27 02:55:00,32.4,27.1,30.15,SE,128,1.0,8.0,81,0.00,,,0.00,meteohub,2013-02-27 07:55:00,
2013-02-27 03:01:00,32.4,27.0,30.15,South,170,1.0,9.0,80,0.00,,,0.00,meteohub,2013-02-27 08:01:00,
2013-02-27 03:06:00,32.4,27.1,30.15,SSE,157,1.0,9.0,81,0.00,,,0.00,meteohub,2013-02-27 08:06:00,
2013-02-27 03:11:00,32.4,27.1,30.15,SSE,161,0.0,9.0,81,0.00,,,0.00,meteohub,2013-02-27 08:11:00,
2013-02-27 03:15:00,32.4,27.0,30.15,WSW,240,1.0,6.0,80,0.00,,,0.00,meteohub,2013-02-27 08:15:00,
2013-02-27 03:20:00,32.4,27.1,30.15,SE,131,0.0,6.0,81,0.00,,,0.00,meteohub,2013-02-27 08:20:00,
2013-02-27 03:26:00,32.2,26.8,30.16,SE,133,0.0,8.0,80,0.00,,,0.00,meteohub,2013-02-27 08:26:00,
2013-02-27 03:31:00,32.4,27.0,30.15,SE,146,0.0,9.0,80,0.00,,,0.00,meteohub,2013-02-27 08:31:00,
2013-02-27 03:36:00,32.4,27.0,30.15,SE,146,4.0,9.0,80,0.00,,,0.00,meteohub,2013-02-27 08:36:00,
2013-02-27 03:41:00,32.4,27.0,30.15,NNE,24,0.0,8.0,80,0.00,,,0.00,meteohub,2013-02-27 08:41:00,
2013-02-27 03:46:00,32.4,27.0,30.15,SW,214,2.0,9.0,80,0.00,,,0.00,meteohub,2013-02-27 08:46:00,
2013-02-27 03:51:00,32.4,27.0,30.15,SSW,193,0.0,9.0,80,0.00,,,0.00,meteohub,2013-02-27 08:51:00,
2013-02-27 03:56:00,32.4,27.0,30.15,SSE,161,0.0,9.0,80,0.00,,,0.00,meteohub,2013-02-27 08:56:00,
2013-02-27 04:01:00,32.5,26.8,30.14,SSE,161,0.0,9.0,79,0.00,,,0.00,meteohub,2013-02-27 09:01:00,
2013-02-27 04:06:00,32.5,26.8,30.14,South,188,1.0,9.0,79,0.00,,,0.00,meteohub,2013-02-27 09:06:00,
2013-02-27 04:11:00,32.5,26.8,30.14,SW,221,0.0,9.0,79,0.00,,,0.00,meteohub,2013-02-27 09:11:00,
2013-02-27 04:16:00,32.5,26.8,30.14,SSW,213,0.0,9.0,79,0.00,,,0.00,meteohub,2013-02-27 09:16:00,
2013-02-27 04:21:00,32.5,26.8,30.14,SE,142,1.0,9.0,79,0.00,,,0.00,meteohub,2013-02-27 09:21:00,
2013-02-27 04:26:00,32.5,26.4,30.13,WSW,250,2.0,8.0,78,0.00,,,0.00,meteohub,2013-02-27 09:26:00,
2013-02-27 04:31:00,32.7,27.0,30.13,WNW,284,0.0,8.0,79,0.00,,,0.00,meteohub,2013-02-27 09:31:00,
2013-02-27 04:36:00,32.5,26.8,30.13,SE,140,0.0,8.0,79,0.00,,,0.00,meteohub,2013-02-27 09:36:00,
2013-02-27 04:41:00,32.5,27.1,30.13,ESE,123,0.0,6.0,80,0.00,,,0.00,meteohub,2013-02-27 09:41:00,
2013-02-27 04:46:00,32.4,27.5,30.13,South,178,2.0,12.0,82,0.00,,,0.00,meteohub,2013-02-27 09:46:00,
2013-02-27 04:51:00,31.8,27.5,30.13,East,98,5.0,12.0,84,0.00,,,0.00,meteohub,2013-02-27 09:51:00,
2013-02-27 04:56:00,31.6,27.7,30.12,SE,146,0.0,7.0,85,0.00,,,0.00,meteohub,2013-02-27 09:56:00,
2013-02-27 05:01:00,31.5,27.5,30.12,WSW,246,0.0,5.0,85,0.00,,,0.00,meteohub,2013-02-27 10:01:00,
2013-02-27 05:06:00,31.5,27.7,30.11,WSW,246,0.0,5.0,86,0.00,,,0.00,meteohub,2013-02-27 10:06:00,
2013-02-27 05:11:00,31.3,27.5,30.11,East,98,0.0,4.0,86,0.00,,,0.00,meteohub,2013-02-27 10:11:00,
2013-02-27 05:16:00,31.3,27.5,30.11,SW,214,0.0,6.0,86,0.00,,,0.00,meteohub,2013-02-27 10:16:00,
2013-02-27 05:21:00,31.3,27.5,30.10,South,169,0.0,6.0,86,0.00,,,0.00,meteohub,2013-02-27 10:21:00,
2013-02-27 05:26:00,31.3,27.5,30.10,WSW,249,0.0,6.0,86,0.00,,,0.00,meteohub,2013-02-27 10:26:00,
2013-02-27 05:31:00,31.3,27.5,30.09,WSW,249,0.0,6.0,86,0.00,,,0.00,meteohub,2013-02-27 10:31:00,
2013-02-27 05:36:00,31.3,27.5,30.09,ESE,121,1.0,6.0,86,0.00,,,0.00,meteohub,2013-02-27 10:36:00,
2013-02-27 05:41:00,31.1,27.7,30.09,SSE,160,2.0,2.0,87,0.00,,,0.00,meteohub,2013-02-27 10:41:00,
2013-02-27 05:46:00,31.1,27.3,30.09,SE,131,4.0,4.0,86,0.00,,,0.00,meteohub,2013-02-27 10:46:00,
2013-02-27 05:51:00,31.3,27.3,30.09,SE,142,0.0,5.0,85,0.00,,,0.00,meteohub,2013-02-27 10:51:00,
2013-02-27 05:56:00,31.3,27.3,30.08,SSE,149,0.0,6.0,85,0.00,,,0.00,meteohub,2013-02-27 10:56:00,
2013-02-27 06:02:00,31.3,27.3,30.08,SE,141,0.0,6.0,85,0.00,,,0.00,meteohub,2013-02-27 11:02:00,
2013-02-27 06:07:00,31.3,27.5,30.07,West,269,0.0,6.0,86,0.00,,,0.00,meteohub,2013-02-27 11:07:00,
2013-02-27 06:12:00,30.9,27.5,30.07,SW,227,0.0,5.0,87,0.00,,,0.00,meteohub,2013-02-27 11:12:00,
2013-02-27 06:17:00,30.9,27.5,30.07,ESE,117,2.0,2.0,87,0.00,,,0.00,meteohub,2013-02-27 11:17:00,
2013-02-27 06:22:00,30.7,27.7,30.07,East,82,0.0,7.0,88,0.00,,,0.00,meteohub,2013-02-27 11:22:00,
2013-02-27 06:27:00,30.7,27.7,30.06,East,82,0.0,7.0,88,0.00,,,0.00,meteohub,2013-02-27 11:27:00,
2013-02-27 06:32:00,30.6,27.7,30.06,NE,43,0.0,7.0,89,0.00,,,0.00,meteohub,2013-02-27 11:32:00,
2013-02-27 06:37:00,30.6,28.0,30.06,NE,44,0.0,3.0,90,0.00,,,0.00,meteohub,2013-02-27 11:37:00,
2013-02-27 06:42:00,30.6,28.0,30.06,WSW,251,0.0,3.0,90,0.00,,,0.00,meteohub,2013-02-27 11:42:00,
2013-02-27 06:47:00,30.4,27.9,30.05,NE,53,0.0,6.0,90,0.00,,,0.00,meteohub,2013-02-27 11:47:00,
2013-02-27 06:52:00,30.4,28.0,30.05,WSW,245,1.0,7.0,91,0.00,,,0.00,meteohub,2013-02-27 11:52:00,
2013-02-27 06:57:00,30.4,28.0,30.05,ENE,66,1.0,7.0,91,0.00,,,0.00,meteohub,2013-02-27 11:57:00,
2013-02-27 07:02:00,30.4,28.0,30.05,SE,126,0.0,7.0,91,0.00,,,0.00,meteohub,2013-02-27 12:02:00,
2013-02-27 07:07:00,30.6,28.2,30.05,SE,126,4.0,7.0,91,0.00,,,0.00,meteohub,2013-02-27 12:07:00,
2013-02-27 07:12:00,30.6,28.2,30.05,South,177,0.0,9.0,91,0.00,,,0.00,meteohub,2013-02-27 12:12:00,
2013-02-27 07:17:00,30.6,28.2,30.04,East,93,0.0,9.0,91,0.00,,,0.00,meteohub,2013-02-27 12:17:00,
2013-02-27 07:22:00,30.7,28.2,30.04,SSE,151,4.0,9.0,90,0.00,,,0.00,meteohub,2013-02-27 12:22:00,
2013-02-27 07:27:00,30.7,28.2,30.04,SSW,203,2.0,7.0,90,0.00,,,0.00,meteohub,2013-02-27 12:27:00,
2013-02-27 07:32:00,30.9,28.4,30.04,WSW,255,2.0,7.0,90,0.00,,,0.00,meteohub,2013-02-27 12:32:00,
2013-02-27 07:37:00,31.1,28.6,30.04,ENE,74,0.0,8.0,90,0.00,,,0.00,meteohub,2013-02-27 12:37:00,
2013-02-27 07:42:00,31.3,28.4,30.03,SSW,207,1.0,8.0,89,0.00,,,0.00,meteohub,2013-02-27 12:42:00,
2013-02-27 07:47:00,31.5,28.6,30.03,South,188,2.0,5.0,89,0.00,,,0.00,meteohub,2013-02-27 12:47:00,
2013-02-27 07:52:00,31.6,28.8,30.03,SSE,168,1.0,5.0,89,0.00,,,0.00,meteohub,2013-02-27 12:52:00,
2013-02-27 07:57:00,31.8,28.8,30.03,NE,48,1.0,5.0,88,0.00,,,0.00,meteohub,2013-02-27 12:57:00,
2013-02-27 08:02:00,32.2,28.9,30.03,SW,217,2.0,5.0,88,0.00,,,0.00,meteohub,2013-02-27 13:02:00,
2013-02-27 08:07:00,32.4,28.9,30.03,NNW,331,0.0,5.0,87,0.00,,,0.00,meteohub,2013-02-27 13:07:00,
2013-02-27 08:12:00,32.4,28.9,30.02,SE,134,0.0,6.0,87,0.00,,,0.00,meteohub,2013-02-27 13:12:00,
2013-02-27 08:17:00,32.7,28.9,30.02,East,90,2.0,6.0,86,0.00,,,0.00,meteohub,2013-02-27 13:17:00,
2013-02-27 08:22:00,33.1,29.3,30.02,SSE,159,0.0,8.0,86,0.00,,,0.00,meteohub,2013-02-27 13:22:00,
2013-02-27 08:27:00,33.4,29.5,30.02,ESE,114,1.0,8.0,85,0.00,,,0.00,meteohub,2013-02-27 13:27:00,
2013-02-27 08:32:00,33.4,29.7,30.01,NW,304,0.0,7.0,86,0.00,,,0.00,meteohub,2013-02-27 13:32:00,
2013-02-27 08:37:00,33.6,29.8,30.01,SW,214,3.0,9.0,86,0.00,,,0.00,meteohub,2013-02-27 13:37:00,
2013-02-27 08:42:00,33.6,30.2,30.01,South,188,4.0,9.0,87,0.00,,,0.00,meteohub,2013-02-27 13:42:00,
2013-02-27 08:47:00,33.4,30.2,30.01,SE,126,0.0,8.0,88,0.00,,,0.00,meteohub,2013-02-27 13:47:00,
2013-02-27 08:52:00,33.4,30.2,30.01,NE,43,1.0,8.0,88,0.00,,,0.00,meteohub,2013-02-27 13:52:00,
2013-02-27 08:57:00,33.4,30.2,30.01,South,189,3.0,8.0,88,0.00,,,0.00,meteohub,2013-02-27 13:57:00,
2013-02-27 09:02:00,33.4,30.6,30.01,SSE,167,1.0,6.0,89,0.00,,,0.00,meteohub,2013-02-27 14:02:00,
2013-02-27 09:08:00,33.4,30.6,30.00,NNE,19,1.0,6.0,89,0.00,,,0.00,meteohub,2013-02-27 14:08:00,
2013-02-27 09:13:00,33.6,30.4,29.99,SE,143,0.0,7.0,88,0.00,,,0.00,meteohub,2013-02-27 14:13:00,
2013-02-27 09:18:00,34.0,30.7,30.00,ESE,121,6.0,8.0,88,0.00,,,0.00,meteohub,2013-02-27 14:18:00,
2013-02-27 09:23:00,34.3,30.9,29.99,East,92,0.0,8.0,87,0.00,,,0.00,meteohub,2013-02-27 14:23:00,
2013-02-27 09:28:00,34.5,31.3,29.99,SW,214,0.0,8.0,88,0.00,,,0.00,meteohub,2013-02-27 14:28:00,
2013-02-27 09:33:00,34.5,31.1,29.98,SSE,166,0.0,8.0,87,0.00,,,0.00,meteohub,2013-02-27 14:33:00,
2013-02-27 09:38:00,34.9,31.5,29.98,WSW,238,0.0,8.0,87,0.00,,,0.00,meteohub,2013-02-27 14:38:00,
2013-02-27 09:43:00,35.1,31.3,29.97,East,80,2.0,8.0,86,0.00,,,0.00,meteohub,2013-02-27 14:43:00,
2013-02-27 09:48:00,35.4,31.6,29.97,SSE,160,2.0,8.0,86,0.00,,,0.00,meteohub,2013-02-27 14:48:00,
2013-02-27 09:53:00,35.6,31.5,29.96,SE,134,1.0,8.0,85,0.00,,,0.00,meteohub,2013-02-27 14:53:00,
2013-02-27 09:58:00,35.8,31.6,29.96,ESE,107,0.0,8.0,85,0.00,,,0.00,meteohub,2013-02-27 14:58:00,
2013-02-27 10:03:00,35.8,31.5,29.96,SSE,159,1.0,15.0,84,0.00,,,0.00,meteohub,2013-02-27 15:03:00,
2013-02-27 10:08:00,35.6,31.5,29.96,ESE,103,6.0,15.0,85,0.00,,,0.00,meteohub,2013-02-27 15:08:00,
2013-02-27 10:13:00,35.8,31.6,29.96,SSE,157,5.0,15.0,85,0.00,,,0.00,meteohub,2013-02-27 15:13:00,
2013-02-27 10:18:00,35.6,31.5,29.96,SSW,200,3.0,13.0,85,0.00,,,0.00,meteohub,2013-02-27 15:18:00,
2013-02-27 10:23:00,35.2,31.5,29.96,SSE,155,0.0,13.0,86,0.00,,,0.00,meteohub,2013-02-27 15:23:00,
2013-02-27 10:28:00,35.1,31.6,29.95,SSE,150,1.0,9.0,87,0.00,,,0.00,meteohub,2013-02-27 15:28:00,
2013-02-27 10:33:00,34.5,31.3,29.95,SE,126,6.0,9.0,88,0.00,,,0.00,meteohub,2013-02-27 15:33:00,
2013-02-27 10:38:00,34.3,31.6,29.94,East,87,4.0,9.0,90,0.00,,,0.00,meteohub,2013-02-27 15:38:00,
2013-02-27 10:43:00,34.3,31.6,29.94,ENE,72,0.0,6.0,90,0.00,,,0.00,meteohub,2013-02-27 15:43:00,
2013-02-27 10:48:00,34.3,31.6,29.95,ESE,105,0.0,8.0,90,0.00,,,0.00,meteohub,2013-02-27 15:48:00,
2013-02-27 10:53:00,34.5,31.8,29.94,East,84,0.0,8.0,90,0.00,,,0.00,meteohub,2013-02-27 15:53:00,
2013-02-27 10:58:00,34.5,32.2,29.95,SSW,200,0.0,8.0,91,0.00,,,0.00,meteohub,2013-02-27 15:58:00,
2013-02-27 11:03:00,34.3,32.0,29.94,East,86,2.0,7.0,91,0.00,,,0.00,meteohub,2013-02-27 16:03:00,
2013-02-27 11:08:00,34.5,32.2,29.95,ESE,121,1.0,8.0,91,0.00,,,0.00,meteohub,2013-02-27 16:08:00,
2013-02-27 11:13:00,34.3,32.0,29.94,SW,221,0.0,8.0,91,0.00,,,0.00,meteohub,2013-02-27 16:13:00,
2013-02-27 11:18:00,34.5,32.2,29.94,South,172,0.0,8.0,91,0.00,,,0.00,meteohub,2013-02-27 16:18:00,
2013-02-27 11:23:00,34.5,32.2,29.94,SSW,198,0.0,7.0,91,0.00,,,0.00,meteohub,2013-02-27 16:23:00,
2013-02-27 11:28:00,34.7,32.4,29.93,ESE,105,2.0,7.0,91,0.00,,,0.00,meteohub,2013-02-27 16:28:00,
2013-02-27 11:33:00,34.9,32.5,29.93,SSE,148,2.0,7.0,91,0.00,,,0.00,meteohub,2013-02-27 16:33:00,
2013-02-27 11:38:00,35.2,32.9,29.93,NE,40,3.0,7.0,91,0.00,,,0.00,meteohub,2013-02-27 16:38:00,
2013-02-27 11:43:00,35.2,32.5,29.93,ESE,120,0.0,7.0,90,0.00,,,0.00,meteohub,2013-02-27 16:43:00,
2013-02-27 11:48:00,35.2,32.5,29.92,ENE,71,0.0,9.0,90,0.02,,,0.02,meteohub,2013-02-27 16:48:00,
2013-02-27 11:53:00,35.1,32.7,29.92,SSE,158,0.0,9.0,91,0.04,,,0.04,meteohub,2013-02-27 16:53:00,
2013-02-27 11:58:00,34.5,32.2,29.91,SE,138,1.0,9.0,91,0.05,,,0.05,meteohub,2013-02-27 16:58:00,
2013-02-27 12:03:00,34.3,32.2,29.91,SW,234,0.0,5.0,92,0.06,,,0.06,meteohub,2013-02-27 17:03:00,
2013-02-27 12:08:00,34.3,32.5,29.91,SW,234,0.0,5.0,93,0.06,,,0.06,meteohub,2013-02-27 17:08:00,
2013-02-27 12:13:00,34.3,32.5,29.91,SSE,156,1.0,2.0,93,0.06,,,0.06,meteohub,2013-02-27 17:13:00,
2013-02-27 12:18:00,34.3,32.5,29.90,SE,146,0.0,5.0,93,0.06,,,0.06,meteohub,2013-02-27 17:18:00,
2013-02-27 12:23:00,34.5,32.7,29.90,ESE,110,0.0,5.0,93,0.06,,,0.06,meteohub,2013-02-27 17:23:00,
2013-02-27 12:28:00,34.5,32.7,29.90,ESE,120,0.0,6.0,93,0.06,,,0.06,meteohub,2013-02-27 17:28:00,
2013-02-27 12:33:00,34.7,32.9,29.90,South,174,0.0,6.0,93,0.06,,,0.06,meteohub,2013-02-27 17:33:00,
2013-02-27 12:38:00,34.5,32.7,29.90,SE,139,0.0,6.0,93,0.07,,,0.07,meteohub,2013-02-27 17:38:00,
2013-02-27 12:43:00,34.5,32.7,29.90,NE,36,1.0,4.0,93,0.06,,,0.07,meteohub,2013-02-27 17:43:00,
2013-02-27 12:48:00,34.3,32.5,29.90,SSE,165,0.0,8.0,93,0.04,,,0.07,meteohub,2013-02-27 17:48:00,
2013-02-27 12:53:00,34.2,32.4,29.89,SSE,165,0.0,8.0,93,0.02,,,0.07,meteohub,2013-02-27 17:53:00,
2013-02-27 12:58:00,34.2,32.4,29.89,SSE,162,0.0,4.0,93,0.02,,,0.07,meteohub,2013-02-27 17:58:00,
2013-02-27 13:03:00,34.0,32.2,29.89,SE,141,1.0,7.0,93,0.01,,,0.07,meteohub,2013-02-27 18:03:00,
2013-02-27 13:08:00,34.0,32.2,29.88,SSE,165,0.0,7.0,93,0.01,,,0.07,meteohub,2013-02-27 18:08:00,
2013-02-27 13:13:00,34.0,32.2,29.88,SW,225,1.0,5.0,93,0.01,,,0.07,meteohub,2013-02-27 18:13:00,
2013-02-27 13:18:00,33.8,32.0,29.88,West,269,0.0,5.0,93,0.01,,,0.07,meteohub,2013-02-27 18:18:00,
2013-02-27 13:23:00,34.0,32.4,29.88,East,97,1.0,5.0,94,0.01,,,0.07,meteohub,2013-02-27 18:23:00,
2013-02-27 13:28:00,34.0,32.4,29.88,East,100,1.0,5.0,94,0.01,,,0.07,meteohub,2013-02-27 18:28:00,
2013-02-27 13:33:00,34.0,32.4,29.87,SSW,209,1.0,5.0,94,0.00,,,0.07,meteohub,2013-02-27 18:33:00,
2013-02-27 13:38:00,34.0,32.4,29.87,NW,322,4.0,5.0,94,0.00,,,0.07,meteohub,2013-02-27 18:38:00,
2013-02-27 13:43:00,34.0,32.2,29.87,NE,42,1.0,8.0,93,0.00,,,0.07,meteohub,2013-02-27 18:43:00,
2013-02-27 13:48:00,34.0,32.2,29.86,NE,51,3.0,8.0,93,0.00,,,0.07,meteohub,2013-02-27 18:48:00,
2013-02-27 13:53:00,33.8,32.2,29.86,East,98,7.0,19.0,94,0.00,,,0.07,meteohub,2013-02-27 18:53:00,
2013-02-27 13:58:00,33.8,32.2,29.86,North,5,8.0,19.0,94,0.01,,,0.08,meteohub,2013-02-27 18:58:00,
2013-02-27 14:03:00,33.8,32.2,29.86,North,355,3.0,19.0,94,0.01,,,0.08,meteohub,2013-02-27 19:03:00,
2013-02-27 14:08:00,33.8,32.2,29.86,South,171,1.0,9.0,94,0.01,,,0.08,meteohub,2013-02-27 19:08:00,
2013-02-27 14:13:00,34.0,32.4,29.85,East,80,0.0,9.0,94,0.01,,,0.08,meteohub,2013-02-27 19:13:00,
2013-02-27 14:18:00,34.0,32.4,29.85,West,271,0.0,8.0,94,0.01,,,0.08,meteohub,2013-02-27 19:18:00,
2013-02-27 14:23:00,34.0,32.4,29.85,NNE,15,5.0,9.0,94,0.01,,,0.08,meteohub,2013-02-27 19:23:00,
2013-02-27 14:28:00,34.2,32.5,29.85,North,0,0.0,9.0,94,0.02,,,0.09,meteohub,2013-02-27 19:28:00,
2013-02-27 14:33:00,34.3,32.7,29.85,NNW,342,0.0,9.0,94,0.02,,,0.09,meteohub,2013-02-27 19:33:00,
2013-02-27 14:38:00,34.3,32.7,29.85,NW,308,0.0,8.0,94,0.03,,,0.10,meteohub,2013-02-27 19:38:00,
2013-02-27 14:43:00,34.3,32.5,29.83,ESE,105,4.0,13.0,93,0.03,,,0.10,meteohub,2013-02-27 19:43:00,
2013-02-27 14:49:00,34.3,32.5,29.83,North,9,3.0,13.0,93,0.04,,,0.11,meteohub,2013-02-27 19:49:00,
2013-02-27 14:54:00,34.2,32.4,29.83,SE,132,2.0,13.0,93,0.03,,,0.11,meteohub,2013-02-27 19:54:00,
2013-02-27 14:59:00,34.2,32.5,29.83,NW,312,0.0,13.0,94,0.04,,,0.12,meteohub,2013-02-27 19:59:00,
2013-02-27 15:04:00,34.2,32.5,29.83,North,10,0.0,13.0,94,0.04,,,0.12,meteohub,2013-02-27 20:04:00,
2013-02-27 15:09:00,34.2,32.5,29.83,SSE,151,4.0,6.0,94,0.05,,,0.13,meteohub,2013-02-27 20:09:00,
2013-02-27 15:14:00,34.2,32.5,29.83,ENE,71,1.0,4.0,94,0.05,,,0.13,meteohub,2013-02-27 20:14:00,
2013-02-27 15:19:00,34.2,32.5,29.83,East,86,0.0,7.0,94,0.05,,,0.13,meteohub,2013-02-27 20:19:00,
2013-02-27 15:24:00,34.0,32.4,29.83,ESE,112,0.0,7.0,94,0.05,,,0.14,meteohub,2013-02-27 20:24:00,
2013-02-27 15:29:00,33.8,32.2,29.83,ENE,74,0.0,6.0,94,0.05,,,0.14,meteohub,2013-02-27 20:29:00,
2013-02-27 15:34:00,33.6,32.0,29.83,East,91,4.0,6.0,94,0.04,,,0.14,meteohub,2013-02-27 20:34:00,
2013-02-27 15:39:00,33.6,32.0,29.82,NNE,31,4.0,5.0,94,0.04,,,0.14,meteohub,2013-02-27 20:39:00,
2013-02-27 15:44:00,33.6,32.0,29.82,East,88,3.0,7.0,94,0.03,,,0.14,meteohub,2013-02-27 20:44:00,
2013-02-27 15:49:00,33.6,32.0,29.82,NE,38,4.0,7.0,94,0.04,,,0.15,meteohub,2013-02-27 20:49:00,
2013-02-27 15:54:00,33.8,32.2,29.82,North,355,2.0,7.0,94,0.03,,,0.15,meteohub,2013-02-27 20:54:00,
2013-02-27 15:59:00,33.6,32.0,29.81,ENE,69,2.0,13.0,94,0.03,,,0.15,meteohub,2013-02-27 20:59:00,
2013-02-27 16:04:00,33.6,32.0,29.81,ENE,61,1.0,13.0,94,0.04,,,0.16,meteohub,2013-02-27 21:04:00,
2013-02-27 16:09:00,33.6,32.0,29.81,NE,44,2.0,13.0,94,0.03,,,0.16,meteohub,2013-02-27 21:09:00,
2013-02-27 16:14:00,33.4,31.8,29.81,ENE,67,1.0,7.0,94,0.03,,,0.16,meteohub,2013-02-27 21:14:00,
2013-02-27 16:19:00,33.4,31.8,29.80,East,101,1.0,8.0,94,0.02,,,0.16,meteohub,2013-02-27 21:19:00,
2013-02-27 16:24:00,33.4,31.8,29.80,South,175,1.0,13.0,94,0.02,,,0.16,meteohub,2013-02-27 21:24:00,
2013-02-27 16:29:00,33.4,31.8,29.80,West,281,1.0,13.0,94,0.02,,,0.16,meteohub,2013-02-27 21:29:00,
2013-02-27 16:34:00,33.4,31.8,29.80,SSW,212,1.0,13.0,94,0.02,,,0.16,meteohub,2013-02-27 21:34:00,
2013-02-27 16:39:00,33.4,31.8,29.79,SE,135,0.0,9.0,94,0.02,,,0.16,meteohub,2013-02-27 21:39:00,
2013-02-27 16:44:00,33.4,31.8,29.80,ENE,78,2.0,8.0,94,0.02,,,0.16,meteohub,2013-02-27 21:44:00,
2013-02-27 16:49:00,33.4,31.8,29.79,NE,36,0.0,6.0,94,0.02,,,0.16,meteohub,2013-02-27 21:49:00,
2013-02-27 16:54:00,33.4,31.8,29.79,West,277,2.0,8.0,94,0.02,,,0.17,meteohub,2013-02-27 21:54:00,
2013-02-27 16:59:00,33.6,32.0,29.79,NE,42,0.0,14.0,94,0.02,,,0.17,meteohub,2013-02-27 21:59:00,
2013-02-27 17:04:00,33.6,32.0,29.79,NNE,29,2.0,14.0,94,0.01,,,0.17,meteohub,2013-02-27 22:04:00,
2013-02-27 17:09:00,33.6,32.0,29.79,ENE,64,3.0,6.0,94,0.01,,,0.17,meteohub,2013-02-27 22:09:00,
2013-02-27 17:14:00,33.4,31.6,29.79,SSW,213,0.0,7.0,93,0.01,,,0.17,meteohub,2013-02-27 22:14:00,
2013-02-27 17:19:00,33.4,31.6,29.79,SE,126,0.0,8.0,93,0.01,,,0.17,meteohub,2013-02-27 22:19:00,
2013-02-27 17:24:00,33.4,31.6,29.79,NNW,337,1.0,8.0,93,0.02,,,0.18,meteohub,2013-02-27 22:24:00,
2013-02-27 17:29:00,33.3,31.6,29.79,NE,40,0.0,8.0,94,0.02,,,0.18,meteohub,2013-02-27 22:29:00,
2013-02-27 17:34:00,33.3,31.6,29.78,SE,138,0.0,4.0,94,0.02,,,0.18,meteohub,2013-02-27 22:34:00,
2013-02-27 17:39:00,33.3,31.6,29.78,ENE,57,4.0,5.0,94,0.02,,,0.18,meteohub,2013-02-27 22:39:00,
2013-02-27 17:44:00,33.3,31.6,29.78,NE,36,1.0,5.0,94,0.02,,,0.18,meteohub,2013-02-27 22:44:00,
2013-02-27 17:49:00,33.3,31.6,29.78,South,186,0.0,5.0,94,0.01,,,0.18,meteohub,2013-02-27 22:49:00,
2013-02-27 17:54:00,33.3,31.6,29.78,NNE,33,0.0,4.0,94,0.01,,,0.18,meteohub,2013-02-27 22:54:00,
2013-02-27 17:59:00,33.1,31.5,29.78,SW,225,0.0,5.0,94,0.01,,,0.18,meteohub,2013-02-27 22:59:00,
2013-02-27 18:04:00,33.1,31.5,29.78,SSE,160,1.0,7.0,94,0.01,,,0.18,meteohub,2013-02-27 23:04:00,
2013-02-27 18:09:00,33.1,31.5,29.78,West,263,0.0,7.0,94,0.01,,,0.18,meteohub,2013-02-27 23:09:00,
2013-02-27 18:14:00,33.1,31.8,29.78,ENE,74,1.0,7.0,95,0.01,,,0.18,meteohub,2013-02-27 23:14:00,
2013-02-27 18:19:00,33.1,31.5,29.78,North,11,0.0,5.0,94,0.00,,,0.18,meteohub,2013-02-27 23:19:00,
2013-02-27 18:25:00,32.9,31.6,29.78,NNE,29,0.0,5.0,95,0.00,,,0.18,meteohub,2013-02-27 23:25:00,
2013-02-27 18:30:00,32.9,31.6,29.78,South,185,1.0,5.0,95,0.00,,,0.18,meteohub,2013-02-27 23:30:00,
2013-02-27 18:35:00,32.9,31.6,29.78,North,0,2.0,5.0,95,0.00,,,0.18,meteohub,2013-02-27 23:35:00,
2013-02-27 18:40:00,32.9,31.6,29.78,NNE,24,0.0,5.0,95,0.00,,,0.18,meteohub,2013-02-27 23:40:00,
2013-02-27 18:45:00,32.7,31.1,29.77,NNE,28,0.0,6.0,94,0.00,,,0.18,meteohub,2013-02-27 23:45:00,
2013-02-27 18:50:00,32.7,31.1,29.77,ENE,77,1.0,7.0,94,0.00,,,0.18,meteohub,2013-02-27 23:50:00,
2013-02-27 18:55:00,32.7,31.1,29.77,WSW,250,0.0,7.0,94,0.00,,,0.18,meteohub,2013-02-27 23:55:00,
2013-02-27 19:00:00,32.7,31.1,29.77,East,84,0.0,7.0,94,0.00,,,0.18,meteohub,2013-02-28 00:00:00,
2013-02-27 19:05:00,32.7,31.1,29.76,NE,37,0.0,5.0,94,0.00,,,0.18,meteohub,2013-02-28 00:05:00,
2013-02-27 19:10:00,32.7,31.1,29.76,SE,130,0.0,5.0,94,0.00,,,0.18,meteohub,2013-02-28 00:10:00,
2013-02-27 19:15:00,32.5,30.9,29.77,SE,130,0.0,5.0,94,0.00,,,0.18,meteohub,2013-02-28 00:15:00,
2013-02-27 19:20:00,32.5,30.9,29.77,ENE,57,0.0,3.0,94,0.00,,,0.18,meteohub,2013-02-28 00:20:00,
2013-02-27 19:25:00,32.5,30.9,29.76,SSE,162,0.0,3.0,94,0.00,,,0.18,meteohub,2013-02-28 00:25:00,
2013-02-27 19:30:00,32.5,30.9,29.77,SSE,161,1.0,5.0,94,0.00,,,0.18,meteohub,2013-02-28 00:30:00,
2013-02-27 19:35:00,32.5,30.9,29.76,SE,126,0.0,5.0,94,0.00,,,0.18,meteohub,2013-02-28 00:35:00,
2013-02-27 19:40:00,32.5,31.3,29.76,SE,126,0.0,5.0,95,0.00,,,0.18,meteohub,2013-02-28 00:40:00,
2013-02-27 19:45:00,32.5,31.3,29.77,East,98,0.0,2.0,95,0.00,,,0.18,meteohub,2013-02-28 00:45:00,
2013-02-27 19:50:00,32.4,30.7,29.76,SSE,168,0.0,4.0,94,0.00,,,0.18,meteohub,2013-02-28 00:50:00,
2013-02-27 19:55:00,32.4,30.7,29.77,SSE,168,0.0,4.0,94,0.00,,,0.18,meteohub,2013-02-28 00:55:00,
2013-02-27 20:00:00,32.4,30.7,29.77,NE,55,0.0,4.0,94,0.00,,,0.18,meteohub,2013-02-28 01:00:00,
2013-02-27 20:05:00,32.4,30.7,29.77,NE,55,0.0,1.0,94,0.00,,,0.18,meteohub,2013-02-28 01:05:00,
2013-02-27 20:10:00,32.2,30.9,29.77,ENE,65,0.0,1.0,95,0.00,,,0.18,meteohub,2013-02-28 01:10:00,
2013-02-27 20:15:00,32.2,30.9,29.76,ENE,65,0.0,0.0,95,0.00,,,0.18,meteohub,2013-02-28 01:15:00,
2013-02-27 20:20:00,32.0,30.7,29.76,ENE,65,0.0,0.0,95,0.00,,,0.18,meteohub,2013-02-28 01:20:00,
2013-02-27 20:25:00,32.0,30.7,29.76,ESE,115,0.0,1.0,95,0.00,,,0.18,meteohub,2013-02-28 01:25:00,
2013-02-27 20:30:00,32.0,30.7,29.76,ESE,115,0.0,1.0,95,0.00,,,0.18,meteohub,2013-02-28 01:30:00,
2013-02-27 20:35:00,32.0,30.7,29.76,ESE,115,0.0,1.0,95,0.00,,,0.18,meteohub,2013-02-28 01:35:00,
2013-02-27 20:40:00,32.0,30.7,29.76,ESE,115,0.0,0.0,95,0.00,,,0.18,meteohub,2013-02-28 01:40:00,
2013-02-27 20:45:00,31.8,30.6,29.75,East,101,0.0,2.0,95,0.00,,,0.18,meteohub,2013-02-28 01:45:00,
2013-02-27 20:50:00,31.8,30.6,29.75,SSE,161,0.0,2.0,95,0.00,,,0.18,meteohub,2013-02-28 01:50:00,
2013-02-27 20:55:00,31.8,30.6,29.75,ESE,114,1.0,2.0,95,0.00,,,0.18,meteohub,2013-02-28 01:55:00,
2013-02-27 21:00:00,31.6,30.4,29.75,NNW,328,0.0,2.0,95,0.00,,,0.18,meteohub,2013-02-28 02:00:00,
2013-02-27 21:05:00,31.6,30.4,29.75,SSE,157,0.0,2.0,95,0.00,,,0.18,meteohub,2013-02-28 02:05:00,
2013-02-27 21:10:00,31.6,30.4,29.75,East,88,0.0,2.0,95,0.00,,,0.18,meteohub,2013-02-28 02:10:00,
2013-02-27 21:15:00,31.6,30.4,29.75,SSW,201,0.0,4.0,95,0.00,,,0.18,meteohub,2013-02-28 02:15:00,
2013-02-27 21:20:00,31.6,30.4,29.75,NNE,30,0.0,4.0,95,0.00,,,0.18,meteohub,2013-02-28 02:20:00,
2013-02-27 21:25:00,31.6,30.4,29.75,South,177,0.0,4.0,95,0.00,,,0.18,meteohub,2013-02-28 02:25:00,
2013-02-27 21:30:00,31.6,30.4,29.75,SSE,163,0.0,2.0,95,0.00,,,0.18,meteohub,2013-02-28 02:30:00,
2013-02-27 21:36:00,31.6,30.4,29.74,SSE,163,0.0,1.0,95,0.00,,,0.18,meteohub,2013-02-28 02:36:00,
2013-02-27 21:41:00,31.6,30.4,29.74,ESE,123,0.0,1.0,95,0.00,,,0.18,meteohub,2013-02-28 02:41:00,
2013-02-27 21:46:00,31.6,30.4,29.74,SE,132,0.0,1.0,95,0.00,,,0.18,meteohub,2013-02-28 02:46:00,
2013-02-27 21:51:00,31.5,30.2,29.74,SE,145,0.0,1.0,95,0.00,,,0.18,meteohub,2013-02-28 02:51:00,
2013-02-27 21:56:00,31.5,30.2,29.74,SE,145,0.0,1.0,95,0.00,,,0.18,meteohub,2013-02-28 02:56:00,
2013-02-27 22:01:00,31.5,30.2,29.73,SE,145,0.0,1.0,95,0.00,,,0.18,meteohub,2013-02-28 03:01:00,
2013-02-27 22:06:00,31.5,30.2,29.73,SE,145,0.0,0.0,95,0.00,,,0.18,meteohub,2013-02-28 03:06:00,
2013-02-27 22:11:00,31.5,30.2,29.73,SE,145,0.0,0.0,95,0.00,,,0.18,meteohub,2013-02-28 03:11:00,
2013-02-27 22:16:00,31.5,30.2,29.73,SE,129,0.0,1.0,95,0.00,,,0.18,meteohub,2013-02-28 03:16:00,
2013-02-27 22:21:00,31.5,30.2,29.73,SE,146,0.0,1.0,95,0.00,,,0.18,meteohub,2013-02-28 03:21:00,
2013-02-27 22:26:00,31.5,30.2,29.73,SSE,162,0.0,1.0,95,0.00,,,0.18,meteohub,2013-02-28 03:26:00,
2013-02-27 22:31:00,31.5,30.4,29.73,SSE,162,0.0,0.0,96,0.00,,,0.18,meteohub,2013-02-28 03:31:00,
2013-02-27 22:36:00,31.5,30.4,29.73,SSE,162,0.0,0.0,96,0.00,,,0.18,meteohub,2013-02-28 03:36:00,
2013-02-27 22:41:00,31.5,30.4,29.73,SSE,162,0.0,0.0,96,0.00,,,0.18,meteohub,2013-02-28 03:41:00,
2013-02-27 22:46:00,31.3,30.2,29.73,SSE,162,0.0,0.0,96,0.00,,,0.18,meteohub,2013-02-28 03:46:00,
2013-02-27 22:51:00,31.3,30.2,29.72,SSE,162,0.0,0.0,96,0.00,,,0.18,meteohub,2013-02-28 03:51:00,
2013-02-27 22:56:00,31.3,30.2,29.72,SSE,162,0.0,0.0,96,0.00,,,0.18,meteohub,2013-02-28 03:56:00,
2013-02-27 23:01:00,31.3,30.2,29.72,SSE,162,0.0,0.0,96,0.00,,,0.18,meteohub,2013-02-28 04:01:00,
2013-02-27 23:06:00,31.3,30.2,29.72,SSE,162,0.0,0.0,96,0.00,,,0.18,meteohub,2013-02-28 04:06:00,
2013-02-27 23:11:00,31.3,30.2,29.72,SSE,162,0.0,0.0,96,0.00,,,0.18,meteohub,2013-02-28 04:11:00,
2013-02-27 23:16:00,31.3,30.2,29.72,SSE,162,0.0,0.0,96,0.00,,,0.18,meteohub,2013-02-28 04:16:00,
2013-02-27 23:21:00,31.3,30.2,29.72,SSE,162,0.0,0.0,96,0.00,,,0.18,meteohub,2013-02-28 04:21:00,
2013-02-27 23:26:00,31.3,30.2,29.72,SSE,162,0.0,0.0,96,0.00,,,0.18,meteohub,2013-02-28 04:26:00,
2013-02-27 23:31:00,31.3,30.2,29.72,SSE,162,0.0,0.0,96,0.00,,,0.18,meteohub,2013-02-28 04:31:00,
2013-02-27 23:36:00,31.3,30.2,29.72,SSE,162,0.0,0.0,96,0.00,,,0.18,meteohub,2013-02-28 04:36:00,
2013-02-27 23:41:00,31.1,30.0,29.71,SSE,162,0.0,0.0,96,0.00,,,0.18,meteohub,2013-02-28 04:41:00,
2013-02-27 23:46:00,31.1,30.0,29.71,SSE,162,0.0,0.0,96,0.00,,,0.18,meteohub,2013-02-28 04:46:00,
2013-02-27 23:51:00,31.1,30.0,29.71,SSE,162,0.0,0.0,96,0.00,,,0.18,meteohub,2013-02-28 04:51:00,
2013-02-27 23:56:00,31.1,30.0,29.71,SSE,162,0.0,0.0,96,0.00,,,0.18,meteohub,2013-02-28 04:56:00,